Challenge Vals & Châteaux

La Course Du Cazier - Marcinelle (10.70 km)

dimanche 17 octobre 2021

Le Classement original se trouve sur : http://www.chronorace.be
CHALLENGE VALS & CHÂTEAUX
LA COURSE DU CAZIER - MARCINELLE
DISTANCE : 10.68 km
dimanche 17 octobre 2021
 
Place Dos NOM Catégorie Pl/cat Temps Temps/km Vitesse
1 959 EL MATOUGUI LAHCEN SEH 1 0:33:44 03:09 19.00
2 207 DEHU DAMIEN SEH 2 0:35:55 03:22 17.85
3 299 BERTI ROMAIN SEH 3 0:36:17 03:24 17.66
4 70 JULLIEN JUSTIN SEH 4 0:36:29 03:25 17.57
5 448 GEENS CHRISTOPHE V1 1 0:36:31 03:25 17.55
6 149 BLANCHARD POL SEH 5 0:36:34 03:25 17.53
7 287 LAUWERS BRYAN SEH 6 0:37:16 03:29 17.20
8 976 SORCE LORENZO SEH 7 0:37:17 03:29 17.19
9 122 CORNILLY MAXIME SEH 8 0:37:33 03:31 17.07
10 200 LUST MAXIME SEH 9 0:37:47 03:32 16.96
11 286 BRUN LOGAN SEH 10 0:38:02 03:34 16.85
12 968 POCHET GUILLAUME SEH 11 0:38:22 03:35 16.71
13 135 GOELENS JULIEN SEH 12 0:38:38 03:37 16.59
14 937 THIEBAUX THIERRY V2 1 0:38:43 03:37 16.55
15 267 JACQUY BENOIT SEH 13 0:38:47 03:38 16.53
16 917 ROEKAERTS CHRISTOPHER SEH 14 0:38:55 03:39 16.47
17 1000 CHAUSSIER GRÉGORY V1 2 0:39:09 03:40 16.37
18 125 BRUNO RINO V1 3 0:39:14 03:40 16.34
19 998 PIÉTREMENT PASCAL V2 2 0:39:17 03:41 16.32
20 66 DENEUBOURG BENOIT SEH 15 0:39:19 03:41 16.30
21 114 MARCHOUL CLÉMENT SEH 16 0:39:25 03:41 16.26
22 103 LOURTIE ADRIEN SEH 17 0:39:33 03:42 16.21
23 991 MANCHE ANTOINE SEH 18 0:39:43 03:43 16.14
24 954 MARROCCHI NORHAM SEH 19 0:40:08 03:45 15.97
25 202 LUST ERIC V2 3 0:40:14 03:46 15.93
26 10876 MARTENS CATHERINE A1 1 0:40:24 03:47 15.86
27 996 RADERMECKER NICOLAS SEH 20 0:40:25 03:47 15.86
28 117 PRÉVOST JULIEN V1 4 0:40:35 03:48 15.79
29 232 RUSSO TONI V2 4 0:40:38 03:48 15.77
30 176 VERBRUGGEN YVES SEH 21 0:40:38 03:48 15.77
31 434 MARQUET BENOIT V1 5 0:40:44 03:49 15.73
32 837 MIGEOT EDOUARD SEH 22 0:40:48 03:49 15.71
33 133 LIBERSENS THOMAS SEH 23 0:40:54 03:50 15.67
34 989 CONIGLIO GIUSEPPE V2 5 0:41:00 03:50 15.63
35 971 OUBOUSKOUR AÏCHA SEF 1 0:41:03 03:51 15.61
36 999 ANDERLINI NICOLAS SEH 24 0:41:09 03:51 15.58
37 194 ADRIEN TASIAUX SEH 25 0:41:18 03:52 15.52
38 990 KADDOUR KARIM V2 6 0:41:19 03:52 15.51
39 19 LENGRONNE AUGUSTIN SEH 26 0:41:20 03:52 15.51
40 264 TOURNAY MARTIN SEH 27 0:41:36 03:54 15.41
41 830 LAMY GEOFFREY SEH 28 0:41:51 03:55 15.32
42 214 MESTRÉ ROMAIN EH 1 0:41:56 03:56 15.28
43 280 AGORASTOS ALEXANDRE V1 6 0:41:59 03:56 15.27
44 90 DEREMINCE MAXIME V1 7 0:42:01 03:56 15.25
45 59 LARDINOIS SIMON SEH 29 0:42:07 03:57 15.22
46 64 FRANCE SEBASTIEN SEH 30 0:42:08 03:57 15.21
47 283 BATON DAVID SEH 31 0:42:10 03:57 15.20
48 980 ALAFAKIS NICOLAS SEH 32 0:42:13 03:57 15.18
49 279 SCIEUR LAURA SEF 2 0:42:14 03:57 15.18
50 99 HUSTIN FRANCOIS JH 1 0:42:17 03:57 15.16
51 203 DUBOIS MICHAËL V1 8 0:42:22 03:58 15.13
52 926 JOLY CYRIL SEH 33 0:42:26 03:58 15.10
53 927 JOLY LOIC SEH 34 0:42:26 03:58 15.10
54 969 OUBOUSKOUR BRAHIM V2 7 0:42:28 03:59 15.09
55 428 DUVIVIER JACKY SEH 35 0:42:33 03:59 15.06
56 11 VOISIN ROMAIN LADY SEH 36 0:42:40 04:00 15.02
57 987 DEWEZ BASTIEN SEH 37 0:42:42 04:00 15.01
58 983 RIVEZ PIERRE V3 1 0:42:43 04:00 15.00
59 318 DE VRIENDT JULIEN SEH 38 0:42:53 04:01 14.95
60 812 BOUVY SAMUEL SEH 39 0:42:55 04:01 14.93
61 948 DENEUBOURG CHRISTOPHE V1 9 0:43:01 04:02 14.90
62 118 HAMRA NAJIBA A2 1 0:43:07 04:02 14.87
63 266 BISCAGLIA FREDERIC V1 10 0:43:08 04:02 14.86
64 127 PISANU ALDO SEH 40 0:43:09 04:02 14.85
65 163 LANGUILLIER ALAIN SEH 41 0:43:11 04:03 14.84
66 962 HASSOUN MUSTAFA V1 11 0:43:16 04:03 14.81
67 10875 LEBRUN XAVIER V1 12 0:43:22 04:04 14.78
68 277 DEVRIEZE DAMIEN SEH 42 0:43:24 04:04 14.77
69 270 SCHIKOWSKY MARCEL V3 2 0:43:28 04:04 14.75
70 458 LEMAL NICOLAS SEH 43 0:43:31 04:04 14.73
71 953 DELFORGE KEVIN SEH 44 0:43:31 04:04 14.73
72 813 DELMAY ALEXIS SEH 45 0:43:34 04:05 14.71
73 88 MAREZ STEPHANE SEH 46 0:43:36 04:05 14.70
74 61 PLANCQ CYRIL SEH 47 0:43:39 04:05 14.68
75 130 BEDORET GEOFFREY SEH 48 0:43:40 04:05 14.68
76 191 NIHOUL MARIE SEF 3 0:43:52 04:06 14.61
77 57 SPELLANZON MICHAEL V2 8 0:44:04 04:08 14.54
78 955 ALLEGRO PAOLO V2 9 0:44:15 04:09 14.48
79 82 MARCHAND PIERRE V1 13 0:44:17 04:09 14.47
80 84 TEICHMANN MAXIME EH 2 0:44:18 04:09 14.47
81 442 TRIFFAUX ANNE A2 2 0:44:21 04:09 14.45
82 249 GUSTIN OLIVIER SEH 49 0:44:22 04:09 14.45
83 826 PAHAUT PIERRE SEH 50 0:44:33 04:10 14.39
84 74 VLEGELS DAMIEN SEH 51 0:44:36 04:11 14.37
85 333 MINEO AURÉLIEN SEH 52 0:44:40 04:11 14.35
86 229 DEROOVER DEBORAH SEF 4 0:44:44 04:11 14.33
87 97 LOURTIE CHRISTOPHE V1 14 0:44:48 04:12 14.31
88 15 DONNET AIMÉ SEH 53 0:44:50 04:12 14.30
89 162 NASROLLAHZADEH MOHAMMAD REZA V1 15 0:44:50 04:12 14.30
90 933 GREGOIRE AXEL JH 2 0:44:57 04:12 14.26
91 936 BRIERE STEPHANE V1 16 0:44:58 04:13 14.25
92 205 LAMBRECHTS OLIVIER V1 17 0:44:59 04:13 14.25
93 297 GOSSIAUX JULIEN SEH 54 0:45:01 04:13 14.24
94 107 WATHELET DAMIEN V1 18 0:45:03 04:13 14.23
95 76 GRECO LARY V1 19 0:45:06 04:13 14.21
96 836 GUIDO GIANNI SEH 55 0:45:20 04:15 14.14
97 825 DUVAL JULIEN SEH 56 0:45:24 04:15 14.12
98 174 MICHAUX KEVIN SEH 57 0:45:33 04:16 14.07
99 957 DAMBOIS THIERRY V2 10 0:45:36 04:16 14.06
100 79 CALICIS CHLOÉ SEF 5 0:45:43 04:17 14.02
101 303 DESTREE GUI V3 3 0:45:43 04:17 14.02
102 931 DEBUISSON ERIC SEH 58 0:45:44 04:17 14.01
103 981 MESSE LIONEL V1 20 0:45:48 04:17 13.99
104 251 VANNOORENBERGHE JOËL V2 11 0:45:53 04:18 13.97
105 244 LHOST DAVID V2 12 0:45:54 04:18 13.96
106 322 LUST JULIEN SEH 59 0:45:57 04:18 13.95
107 153 LIGO VINCENT V2 13 0:45:59 04:18 13.94
108 201 DUBUCQ LOUIS SEH 60 0:46:02 04:19 13.92
109 219 PETIT AMANDE A3 1 0:46:07 04:19 13.90
110 242 KLOTERS JEAN-PIERRE V2 14 0:46:15 04:20 13.86
111 816 THEYS THOMAS SEH 61 0:46:15 04:20 13.86
112 185 CROWET VIVIAN V1 21 0:46:16 04:20 13.85
113 147 ANTOINE JEREMY SEH 62 0:46:27 04:21 13.80
114 109 MANETTE GILLES V1 22 0:46:31 04:21 13.78
115 982 PAIRON BERBERIS SEH 63 0:46:31 04:21 13.78
116 212 MESTRÉ FREDERIC V1 23 0:46:39 04:22 13.74
117 958 EL KALISCH ABDEL V3 4 0:46:40 04:22 13.73
118 80 DE STEFANO MICHAEL V1 24 0:46:43 04:22 13.72
119 310 DUYTSCHAEVER LEO SEH 64 0:46:44 04:22 13.71
120 438 PELLEGRINI ESTEBAN V1 25 0:46:48 04:23 13.70
121 321 FEVRIER CHRISTOPHE V2 15 0:46:50 04:23 13.69
122 222 MONNE DAVIDE V1 26 0:46:51 04:23 13.68
123 16 FINN HUGO SEH 65 0:47:03 04:24 13.62
124 945 KLEINKENBERG GUILLAUME SEH 66 0:47:04 04:24 13.62
125 156 HUAUX ANTOINE SEH 67 0:47:06 04:25 13.61
126 956 INTRVIGNE ADRIEN SEH 68 0:47:10 04:25 13.59
127 184 DI GIACOMO CARL V1 27 0:47:10 04:25 13.59
128 218 DECLERCQ GUY V3 5 0:47:13 04:25 13.57
129 150 MARANT ADRIEN SEH 69 0:47:14 04:25 13.57
130 119 RUIDANT ARNAUD V1 28 0:47:22 04:26 13.53
131 72 MATHEVE ADRIEN SEH 70 0:47:25 04:26 13.52
132 994 GIROUX JACQUES SEH 71 0:47:46 04:28 13.42
133 86 DUPONT CHARLY SEH 72 0:47:46 04:28 13.42
134 284 RANDALL CHRISTOPHER V3 6 0:47:50 04:29 13.40
135 273 BADY FRANK V1 29 0:47:51 04:29 13.39
136 840 MATERNE JEAN-PHILIPPE V2 16 0:47:52 04:29 13.39
137 152 BIERWISCH JEAN MICHEL V1 30 0:47:55 04:29 13.38
138 263 DI PISA LORENZO V1 31 0:47:56 04:29 13.37
139 2 GOBEAUX CHANTAL A2 3 0:47:59 04:30 13.36
140 195 SOUMAGNE FRANCIS V3 7 0:48:00 04:30 13.35
141 918 LEBOUTTE CHRISTIAN SEH 73 0:48:03 04:30 13.34
142 986 CAMPRUBÍ TRIAS ÒNIA A1 2 0:48:22 04:32 13.25
143 833 TAGNON LUCIE SEF 6 0:48:34 04:33 13.20
144 146 BALDARELLI TERESA A3 2 0:48:35 04:33 13.19
145 850 LEBOUTTE JULIEN SEH 74 0:48:43 04:34 13.16
146 7 PEPINSTER EMMANUEL V1 32 0:48:53 04:35 13.11
147 327 SIMONART ALEXANDRE SEH 75 0:49:02 04:35 13.07
148 829 LAMBIOTTE OLIVIER V1 33 0:49:05 04:36 13.06
149 932 MATHY JULIEN SEH 76 0:49:10 04:36 13.04
150 814 PELLISIER VINCENT SEH 77 0:49:17 04:37 13.01
151 215 THIÉBAUX MAXIME SEH 78 0:49:18 04:37 13.00
152 988 SERON CLAUDE V4 1 0:49:20 04:37 12.99
153 274 BOUHIÈRE STÉPHANE V1 34 0:49:20 04:37 12.99
154 831 FERAUT NATHAN SEH 79 0:49:27 04:38 12.96
155 155 VANESSE JEREMY V1 35 0:49:28 04:38 12.96
156 58 CHEVALIER ALEXANDRE SEH 80 0:49:29 04:38 12.95
157 308 DESCHAMPS JULIEN SEH 81 0:49:30 04:38 12.95
158 960 PAQUET MICHAEL V1 36 0:49:40 04:39 12.90
159 148 GRAYSON PIETER SEH 82 0:49:42 04:39 12.90
160 124 CHIUSANO MARIA TERESA A2 4 0:49:46 04:40 12.88
161 159 BERNARD SIMON SEH 83 0:49:49 04:40 12.87
162 227 JOSEPH SEVERINO V1 37 0:50:04 04:41 12.80
163 98 DE GRAEVE VALERIE A2 5 0:50:07 04:41 12.79
164 165 MICHEL MAUD SEF 7 0:50:08 04:42 12.78
165 116 VAN DRIESSCHE SOPHIE A1 3 0:50:09 04:42 12.78
166 984 DELFOSSE CAMILLE A1 4 0:50:15 04:42 12.75
167 851 DUSART ANNE A1 5 0:50:17 04:42 12.75
168 225 MIGEOTTE JONATHAN SEH 84 0:50:24 04:43 12.72
169 170 DEBUT THOMAS SEH 85 0:50:25 04:43 12.71
170 821 BRUYR BENOÎT V1 38 0:50:25 04:43 12.71
171 182 EYLETTERS CLÉMENT SEH 86 0:50:32 04:44 12.68
172 190 LEFEVRE AURÉLIEN SEH 87 0:50:35 04:44 12.67
173 820 SCIEUR CHARLOTTE SEF 8 0:50:42 04:45 12.64
174 457 VAN DURME AGÉNOR SEH 88 0:50:44 04:45 12.63
175 941 POTAUFEUX JEAN EMILE SEH 89 0:50:47 04:45 12.62
176 10 URBAIN STÉPHANIE A1 6 0:50:50 04:46 12.61
177 20 VANDERSTRAETEN NICOLAS SEH 90 0:50:54 04:46 12.59
178 817 GEERTS JENNIFÈRE SEF 9 0:50:57 04:46 12.58
179 849 RAS LIONEL SEH 91 0:51:05 04:47 12.55
180 445 DECAMPS ERIC V2 17 0:51:06 04:47 12.54
181 282 BIERLAIRE NICOLAS SEH 92 0:51:06 04:47 12.54
182 452 OLARU RADU SEH 93 0:51:12 04:48 12.52
183 68 FAIETA FABIO SEH 94 0:51:13 04:48 12.51
184 853 SOMVILLE LOIC V2 18 0:51:16 04:48 12.50
185 151 BOURMORCK CARINE A2 6 0:51:23 04:49 12.47
186 62 HARDY PHILIPPE SEH 95 0:51:25 04:49 12.47
187 81 SASSI STÉPHAN SEH 96 0:51:26 04:49 12.46
188 56 GENICQ ANTHONY SEH 97 0:51:26 04:49 12.46
189 183 WAUSORT PASCAL V2 19 0:51:36 04:50 12.42
190 261 DEBROUX ROMAIN SEH 98 0:51:37 04:50 12.42
191 922 LAUWERS PERRINE SEF 10 0:51:38 04:50 12.41
192 973 DALATAS MEHMET V1 39 0:51:40 04:50 12.41
193 928 BUCCI GABRIELLE A3 3 0:51:42 04:50 12.40
194 258 VANDEN BOSSCHE THIERRY V1 40 0:51:43 04:50 12.39
195 18 HIBON YANN SEH 99 0:51:44 04:51 12.39
196 226 VANDERSTRAETEN PIERRE V2 20 0:51:47 04:51 12.38
197 992 STILMANT CÉLINE SEF 11 0:51:48 04:51 12.37
198 262 COSSEDDU VITO V2 21 0:51:51 04:51 12.36
199 78 BERTRAND ALEXANDRE SEH 100 0:51:52 04:51 12.36
200 302 MESSINA NATHALIE A2 7 0:51:59 04:52 12.33
201 947 VANDERCAM CHRISTOPHE V1 41 0:52:04 04:52 12.31
202 181 SERAFIN LORENZO V1 42 0:52:05 04:53 12.31
203 136 CAMBIEN JEAN-FRANÇOIS V1 43 0:52:06 04:53 12.30
204 305 ROMANI GEOFFREY SEH 101 0:52:06 04:53 12.30
205 301 VANGEEN DELPHINE A1 7 0:52:11 04:53 12.28
206 441 STRENS JOHNNY V1 44 0:52:21 04:54 12.24
207 456 LIZON LAURENT V1 45 0:52:22 04:54 12.24
208 275 BRUNEEL AURORE A1 8 0:52:25 04:54 12.23
209 951 LANCELLE ARTHUR SEH 102 0:52:25 04:54 12.23
210 437 REFOJOS XAVIER SEH 103 0:52:26 04:55 12.22
211 288 LAUWERS STEVE V2 22 0:52:31 04:55 12.20
212 846 HENIN JEREMY SEH 104 0:52:37 04:56 12.18
213 112 DEBROUX FABIAN V2 23 0:52:44 04:56 12.15
214 319 GUERRA OLIVIER V1 46 0:52:46 04:56 12.15
215 101 DUSAUCY EVA JF 1 0:52:55 04:57 12.11
216 847 BOUTCHON GREG V1 47 0:53:01 04:58 12.09
217 94 HERLIN NATHALIE A2 8 0:53:07 04:58 12.07
218 815 MERCANTE GIOVANNI V1 48 0:53:11 04:59 12.05
219 177 VOERMANTROUW RAPHAEL V1 49 0:53:14 04:59 12.04
220 164 DEFOURNY LYDWINE SEH 105 0:53:14 04:59 12.04
221 304 ALBERS FRÉDÉRIC V2 24 0:53:15 04:59 12.04
222 140 ESCOYEZ DORIANE SEF 12 0:53:16 04:59 12.03
223 427 CEBO FRÉDÉRIC V2 25 0:53:17 04:59 12.03
224 145 IANNUCCI CATHY A2 9 0:53:19 04:59 12.02
225 77 MÉTRAL GAËLLE JF 2 0:53:19 04:59 12.02
226 920 BACHY ANTOINE SEH 106 0:53:26 05:00 12.00
227 942 LELOUP MATHIEU V1 50 0:53:30 05:00 11.98
228 257 COTTIN DENIS V2 26 0:53:34 05:01 11.97
229 63 RUYSSEN MARTIN SEH 107 0:53:41 05:02 11.94
230 972 HALE BERNARD V2 27 0:53:41 05:02 11.94
231 260 MANDERLIER MARC V2 28 0:53:42 05:02 11.94
232 447 CAMMAERT CRISTELLE A1 9 0:53:42 05:02 11.94
233 934 PUELINCKX OLIVIER V1 51 0:53:42 05:02 11.94
234 220 BRAHAM JEAN V4 2 0:53:47 05:02 11.92
235 845 DELTENRE FREDERIC V1 52 0:53:51 05:02 11.90
236 433 BAUDUIN VINCENT V2 29 0:54:10 05:04 11.83
237 13 LAGNEAUX DELPHINE A1 10 0:54:13 05:05 11.82
238 120 LIMON FREDERIC V1 53 0:54:19 05:05 11.80
239 320 DELECOSSE DAVID V1 54 0:54:24 05:06 11.78
240 453 ARCARI FRÉDÉRIC SEH 108 0:54:30 05:06 11.76
241 247 DONKERWOLKE LUC V1 55 0:54:38 05:07 11.73
242 67 MATHIEU STEPHANIE A1 11 0:54:39 05:07 11.73
243 92 DELISSE LOUIS SEH 109 0:54:41 05:07 11.72
244 208 STEVENS CAROLINE SEF 13 0:54:46 05:08 11.70
245 925 SIERRA EDGAR V1 56 0:54:48 05:08 11.70
246 209 GRAFE PAUL V2 30 0:54:50 05:08 11.69
247 131 LEFEBVRE CLÉMENT SEH 110 0:54:51 05:08 11.69
248 265 VANCOMPERNOLLE QUENTIN SEH 111 0:54:54 05:08 11.67
249 171 RABCZAK RAFAL SEH 112 0:54:57 05:09 11.66
250 269 FISICARO JEROME SEH 113 0:54:58 05:09 11.66
251 425 CAMPOS JOSE V2 31 0:55:02 05:09 11.65
252 426 CAMPOS THELMA SEF 14 0:55:04 05:09 11.64
253 455 VERBEIREN GAETAN SEH 114 0:55:06 05:09 11.63
254 324 FAUQUEZ LAURIE SEF 15 0:55:10 05:10 11.62
255 334 PIERSON BENOIT SEH 115 0:55:11 05:10 11.61
256 950 VANYCK TIMOTHY SEH 116 0:55:15 05:10 11.60
257 93 SALVADORE OLIVIER V1 57 0:55:16 05:10 11.60
258 106 DALIR THOMAS V1 58 0:55:18 05:11 11.59
259 335 APPART THIERRY V1 59 0:55:27 05:11 11.56
260 51 LEONI MURIEL A2 10 0:55:28 05:12 11.56
261 65 DURIEUX YVAN V3 8 0:55:28 05:12 11.56
262 221 GRIMONT NICOLAS SEH 117 0:55:34 05:12 11.53
263 255 VANHALLE FRANÇOIS-XAVIER V1 60 0:55:35 05:12 11.53
264 87 ROQUET-GRAVY PIERRE-PAUL V2 32 0:55:35 05:12 11.53
265 166 DUVAL CHRISTOPHE SEH 118 0:55:42 05:13 11.51
266 115 BURY ANNE A1 12 0:55:53 05:14 11.47
267 113 MARBAIS JOHAN V1 61 0:55:59 05:14 11.45
268 312 ALMAS CRISTIAN V1 62 0:56:01 05:15 11.44
269 129 LIERNEUX HUGUES V2 33 0:56:04 05:15 11.43
270 73 KRZEWINSKI QUENTIN SEH 119 0:56:08 05:15 11.42
271 126 BEAUFAYS JEROME V1 63 0:56:12 05:16 11.40
272 451 BLANC GUILAINE A1 13 0:56:29 05:17 11.35
273 9 SONET AMELIE A1 14 0:56:30 05:17 11.34
274 818 THIJS ANDY SEH 120 0:56:37 05:18 11.32
275 819 VERZELE LUDWINE A1 15 0:56:38 05:18 11.32
276 69 GEA NICOLAS SEH 121 0:56:48 05:19 11.28
277 300 BERNARDI FRÉDÉRIC V1 64 0:56:50 05:19 11.28
278 298 MASSCHELEIN STÉPHANIE A1 16 0:56:52 05:19 11.27
279 132 BEDORET VINCENT V3 9 0:56:59 05:20 11.25
280 939 KINIF PHILIPPE V2 34 0:57:01 05:20 11.24
281 938 LAGNEAUX CELINE A1 17 0:57:01 05:20 11.24
282 331 VANNOORENBERGHE RÉMY SEH 122 0:57:05 05:21 11.23
283 178 BILLOT PIERRE V2 35 0:57:06 05:21 11.22
284 160 DOYEN DAVID V1 65 0:57:09 05:21 11.21
285 3 HLADKI GAËLLE SEF 16 0:57:10 05:21 11.21
286 228 GELPI GRÉGORY V1 66 0:57:12 05:21 11.21
287 237 GEORIS ALEXANDRE SEH 123 0:57:19 05:22 11.18
288 141 RICCARDI MIRKO V2 36 0:57:21 05:22 11.18
289 834 WYVEKENS MATHILDA SEF 17 0:57:22 05:22 11.17
290 83 LAFFINEUR KEVIN SEH 124 0:57:23 05:22 11.17
291 306 QUARANTA BRUNO V2 37 0:57:30 05:23 11.15
292 239 BRAHAM FREDERIC V1 67 0:57:38 05:24 11.12
293 444 DE WULF LUC V3 10 0:57:59 05:26 11.05
294 245 DERZELLE JESSICA A1 18 0:58:04 05:26 11.04
295 217 BURHIN HUBERT SEH 125 0:58:26 05:28 10.97
296 85 GRÉGOIRE THIBAUT V1 68 0:58:30 05:29 10.96
297 108 GIVOGRE SARAH A1 19 0:58:38 05:29 10.93
298 110 MATTHYS MICHAEL V1 69 0:58:40 05:30 10.93
299 946 LOVQVIST VIKTORIA SEF 18 0:58:45 05:30 10.91
300 919 DORIAND PASCAL V1 70 0:58:51 05:31 10.89
301 828 NUNEZ GARCIA MANUEL SEH 126 0:58:56 05:31 10.88
302 940 DUBUISSON PHILIPPE V2 38 0:59:25 05:34 10.79
303 276 BRUAUX NATHALIE A3 4 0:59:34 05:35 10.76
304 104 MUS ALEXANDRO SEH 127 0:59:36 05:35 10.75
305 54 DE MOL OLIVIER V2 39 0:59:37 05:35 10.75
306 213 RENARD ISABELLE A1 20 0:59:42 05:35 10.74
307 89 HENRY PHILIPPE V2 40 0:59:49 05:36 10.71
308 827 DELSARTE RAPHAEL SEH 128 0:59:53 05:36 10.70
309 196 MARCHAL ERIC V2 41 0:59:53 05:36 10.70
310 204 GAMBINO PIETRO V3 11 1:00:03 05:37 10.67
311 197 GIBON BRIGITTE - 1 1:00:07 05:38 10.66
312 294 JEANMART PHILIPPE V1 71 1:00:19 05:39 10.63
313 315 COLSON XAVIER V1 72 1:00:21 05:39 10.62
314 161 ESSER NATHALIE A2 11 1:00:22 05:39 10.62
315 154 BRIQUET GERALDINE A2 12 1:00:26 05:39 10.61
316 852 DUPONCHEEL HÉLÈNE A2 13 1:00:27 05:40 10.60
317 443 KONSTANTINIDIS STAVROS V3 12 1:00:28 05:40 10.60
318 278 ROUVEROY DANIEL V3 13 1:00:36 05:40 10.58
319 179 VAN ASTER ALAIN V2 42 1:00:41 05:41 10.56
320 811 DRAUX SEVERINE V1 73 1:00:46 05:41 10.55
321 435 FAYT FRANCOIS V2 43 1:00:52 05:42 10.53
322 75 NEYMAN PASCAL V2 44 1:01:07 05:43 10.49
323 326 DEBJANI BILAL SEH 129 1:01:22 05:45 10.44
324 325 MABILE VALERY V1 74 1:01:24 05:45 10.44
325 240 POULAIN SOPHIE A1 21 1:01:28 05:45 10.43
326 241 MORREELS VANESSA A1 22 1:01:30 05:45 10.42
327 309 BLONDIAUX JULIE SEF 19 1:01:32 05:46 10.42
328 835 MOURAUX CHARLOTTE SEF 20 1:01:40 05:46 10.39
329 206 VAN IMMERSEEL SANDRINE A2 14 1:01:40 05:46 10.39
330 8 PUZZOLO CLAUDIA A1 23 1:01:41 05:46 10.39
331 12 ZARULLI SÉVERINE A1 24 1:01:43 05:47 10.39
332 189 SCHOONHEYT CLAUDE V3 14 1:01:50 05:47 10.37
333 439 SMETS EMMANUEL V2 45 1:01:57 05:48 10.35
334 440 SMETS CAROLINE SEF 21 1:01:57 05:48 10.35
335 186 BAUDOUX-DESTRÉE STEVE SEH 130 1:02:01 05:48 10.33
336 55 MARIEVOET BAPTISTE SEH 131 1:02:02 05:48 10.33
337 460 LAUWAERT CHRISTIAN V4 3 1:02:04 05:49 10.33
338 139 TURLA DERRY V3 15 1:02:05 05:49 10.32
339 71 MONFORTI ANDREA SEF 22 1:02:17 05:50 10.29
340 192 PIETTE MYRIAM A3 5 1:02:22 05:50 10.28
341 930 DRAUX NATHALIE A1 25 1:02:26 05:51 10.27
342 60 HALTER MELANIE A1 26 1:02:31 05:51 10.25
343 254 TIELEMANS PHILIPPE V3 16 1:02:35 05:52 10.24
344 256 HOMBRAIN JEAN-MARC V2 46 1:02:35 05:52 10.24
345 121 NUSBAUMER REGIS SEH 132 1:02:35 05:52 10.24
346 975 STREBEL MARC V2 47 1:02:37 05:52 10.24
347 248 HAEGEMAN RUDY V1 75 1:02:41 05:52 10.22
348 432 WARTIQUE ERIC V2 48 1:02:49 05:53 10.20
349 929 TACSIN FRANCOIS V1 76 1:02:51 05:53 10.20
350 6 PASCALI MARIE-CHRISTINE A1 27 1:03:00 05:54 10.17
351 5 MARCHI MARYLISE A1 28 1:03:06 05:54 10.16
352 233 DUBOIS JÉRÉMIE SEH 133 1:03:07 05:55 10.15
353 921 VAN DEN BERGE MARIE A1 29 1:03:07 05:55 10.15
354 211 BEGET FABIENNE A1 30 1:03:10 05:55 10.15
355 173 BROGNEAUX BENJAMIN JH 3 1:03:15 05:55 10.13
356 293 VAN LANDEGHEM BENEDICTE A2 15 1:03:15 05:55 10.13
357 296 HOUBION ROLAND V2 49 1:03:16 05:55 10.13
358 295 MARTINOT OLIVIER V2 50 1:03:16 05:55 10.13
359 316 LAUDELOUT NATHALIE A1 31 1:03:16 05:55 10.13
360 224 TEUGELS MARIE-FRANCE A1 32 1:03:20 05:56 10.12
361 964 DERCLAYE BERNAD V2 51 1:03:25 05:56 10.11
362 824 NICOLAS BENJAMIN SEH 134 1:03:28 05:56 10.10
363 187 DE COUVREUR MATHILDE SEF 23 1:03:37 05:57 10.07
364 993 VANDENDRESCHS DANNY V1 77 1:03:38 05:57 10.07
365 329 DE GOEIJ CHRISTEL A2 16 1:03:45 05:58 10.05
366 854 GILARD STEPHANIE A2 17 1:03:55 05:59 10.03
367 842 ROUSSEAU CATHERINE A2 18 1:03:56 05:59 10.03
368 848 BULINCKX AUDREY A1 33 1:04:06 06:00 10.00
369 809 KRAFFT CASSIE SEF 24 1:04:06 06:00 10.00
370 210 GRAMBRAS ANGELIQUE A1 34 1:04:07 06:00 10.00
371 250 DELCOUR MARTIN JH 4 1:04:07 06:00 10.00
372 138 CEDRIC COLLARD SEH 135 1:04:08 06:00 9.99
373 53 COWEZ MAT SEH 136 1:04:08 06:00 9.99
374 137 BOSCHI ANAIS A1 35 1:04:08 06:00 9.99
375 168 DE WITTE EMILIE SEF 25 1:04:13 06:01 9.98
376 167 DE WITTE LISE SEF 26 1:04:13 06:01 9.98
377 143 FRANLESCANGELI LAURA A1 36 1:04:16 06:01 9.97
378 144 MERCIER JEAN PHIL SEH 137 1:04:17 06:01 9.97
379 454 DRUAUX VÉRONIQUE A3 6 1:04:18 06:01 9.97
380 979 HOYAS BENJAMIN SEH 138 1:04:23 06:02 9.95
381 4 JOMAUX SOPHIE A1 37 1:04:26 06:02 9.95
382 832 MOTET CHRISTIAN SEH 139 1:04:32 06:02 9.93
383 841 BUXANT NATHALIE A2 19 1:04:32 06:02 9.93
384 924 BANDINU KIARA SEF 27 1:04:40 06:03 9.91
385 459 LUIGI BRUNO V3 17 1:04:46 06:04 9.90
386 949 HENRIOULLE JEROME SEH 140 1:05:05 06:06 9.85
387 102 DUSAUCY CAMILLE SEF 28 1:05:08 06:06 9.84
388 236 ANTOINE CHARLOTTE SEF 29 1:05:10 06:06 9.84
389 238 GAMACHE LUC V2 52 1:05:12 06:06 9.83
390 1 BOLLEN ELISABETH A2 20 1:05:19 06:07 9.81
391 158 RICCARDI VALENTINE SEF 30 1:05:29 06:08 9.79
392 978 HUBEAU JESSICA SEF 31 1:05:31 06:08 9.78
393 230 VAN DEN BOSSCHE JÉRÔME V1 78 1:05:31 06:08 9.78
394 243 GONCALVES ISABELLE A2 21 1:05:32 06:08 9.78
395 977 GOVAERTS MESSALINE SEF 32 1:05:34 06:08 9.78
396 216 PICCOLO VINCENT SEH 141 1:05:46 06:09 9.75
397 100 DUSAUCY LOUISE SEF 33 1:05:49 06:10 9.74
398 96 DELLISSE CELINE SEF 34 1:06:05 06:11 9.70
399 95 DUCHATEAU NATHALIE A2 22 1:06:25 06:13 9.65
400 822 LEFEBVRE MARIE SEF 35 1:06:29 06:13 9.64
401 823 LEFEBVRE MATHILDE SEF 36 1:06:29 06:13 9.64
402 985 CARDELLA ANGELA A3 7 1:06:39 06:14 9.62
403 995 TILMANT VIVIANE A3 8 1:06:42 06:15 9.61
404 291 DESCHEPPER MICHEL V3 18 1:06:54 06:16 9.58
405 431 BAEL LAURENCE A2 23 1:07:04 06:17 9.56
406 430 PIROT FRÉDÉRIC V1 79 1:07:04 06:17 9.56
407 429 PIROT JULIEN SEH 142 1:07:05 06:17 9.55
408 175 SERUBUGA LOUIS PAULIN V2 53 1:07:06 06:17 9.55
409 91 DELLISSE DOMINIQUE V2 54 1:07:10 06:17 9.54
410 234 TOLLET PIERRE V3 19 1:07:20 06:18 9.52
411 307 BARREAU LAETITIA A2 24 1:08:26 06:24 9.37
412 123 RAMDANI ABDELHAK V2 55 1:08:40 06:26 9.33
413 272 DEL-BEN CLAUDE V2 56 1:08:40 06:26 9.33
414 235 TOLLET LAETITIA A1 38 1:08:45 06:26 9.32
415 943 DURAY NOÉMIE JF 3 1:08:50 06:27 9.31
416 952 DE CRITS YANNIC A1 39 1:08:51 06:27 9.31
417 944 DURAY OLIVIER V2 57 1:08:51 06:27 9.31
418 311 CHARNEUX FRANÇOISE A2 25 1:09:07 06:28 9.27
419 180 DE LUYCK FEMKE SEF 37 1:09:07 06:28 9.27
420 172 PELGRIMS GAELLE A1 40 1:09:10 06:28 9.27
421 289 FILAFERRO MAGALI A2 26 1:09:10 06:28 9.27
422 128 LILI DI A2 27 1:09:21 06:30 9.24
423 330 VANDERCLAUSE SAMUEL SEH 143 1:09:23 06:30 9.24
424 169 KEBBACHE MALIKA A2 28 1:09:23 06:30 9.24
425 323 VANDERCLAUSE HUGUES SEH 144 1:09:26 06:30 9.23
426 199 SAVARINO GIANNI V3 20 1:09:35 06:31 9.21
427 52 GOSSART MARGAUX SEF 38 1:09:46 06:32 9.19
428 855 GOSSART ETIENNE V2 58 1:09:47 06:32 9.18
429 839 CANON CÉLINE SEF 39 1:10:43 06:37 9.06
430 193 VANWINNENDAELE PAULINE SEF 40 1:10:44 06:37 9.06
431 838 COMPS VALENTIN SEH 145 1:10:44 06:37 9.06
432 271 SCIMEMI GIOVANNI V1 80 1:10:46 06:37 9.06
433 313 ROLAND BRIGITTE A1 41 1:11:14 06:40 9.00
434 314 LEMAIRE JEANMARC V1 81 1:11:15 06:40 9.00
435 328 SIMONART OLIVIER V2 59 1:11:17 06:40 8.99
436 134 GERARD DOMINIQUE A3 9 1:11:54 06:44 8.91
437 810 NUYTTEN STÉPHANIE A2 29 1:11:55 06:44 8.91
438 807 HALLAERT CHRISTINE A2 30 1:12:56 06:50 8.79
439 808 LECOCQ LAURENCE A2 31 1:12:58 06:50 8.78
440 963 ANIQUE FABIENNE A3 10 1:13:26 06:52 8.73
441 997 AKAL EMEL A3 11 1:13:26 06:52 8.73
442 317 CLAES GODELIVE A3 12 1:13:32 06:53 8.72
443 157 RENARD FLORIAN SEH 146 1:13:37 06:53 8.71
444 142 PICCIUTO MARIE A2 32 1:14:07 06:56 8.65
445 198 TORFS CHRISTINE A4 1 1:14:34 06:59 8.60
446 967 DIALLO AMINATA A2 33 1:15:57 07:07 8.44
447 105 ANDRIS JEAN V4 4 1:16:00 07:07 8.43
448 844 RUELLE ANNE CELINE A1 42 1:17:09 07:13 8.31
449 843 SCUTNAIRE DELPHINE A2 34 1:17:10 07:13 8.31
450 966 REMY SYLVIE A3 13 1:19:29 07:26 8.06
451 974 VANDEPOEL DANIELLE A3 14 1:22:10 07:42 7.80
452 290 PIETTE MARYVONNE A3 15 1:26:46 08:07 7.39
453 965 DIA HAWA SEF 41 1:26:51 08:08 7.38
               
Nos dernières videos